Location: ?????????
(41.2286°N, 23.0068°E)
Time: 08:44:07
(UTC+00:00)

Cosmos 2360 Rocket - Pass Details

Date: 08 November 2025
Orbit: 833 x 843 km, 71.0° (Epoch: 05 December)

Event Time Altitude Azimuth Distance (km) Brightness Sun altitude
Exits shadow 02:17:27 18° 7° (N) 1,973 4.2 -32.2°
Drops below altitude 10° 02:18:53 10° 13° (NNE) 2,471 4.8 -31.9°
Sets 02:21:27 0° 19° (NNE) 3,409 5.6 -31.5°
